Winchester, TN

1:48 AM CDT on October 22, 2017 (GMT -0500)
Winchester Municipal

Weather History for KBGF - January, 2014

Change the Weather History Date:

Saturday, January 4, 2014

  Actual Average (KTHA) Record (KTHA)
Temperature  
Mean Temperature 34 °F -  
Max Temperature 44 °F 47 °F 60 °F (2015)
Min Temperature 24 °F 29 °F 19 °F (2013)
Degree Days  
Heating Degree Days 31    
Moisture  
Dew Point 17 °F    
Average Humidity 51    
Maximum Humidity 81    
Minimum Humidity 34    
Precipitation  
Precipitation 0.00 in - - ()
Sea Level Pressure  
Sea Level Pressure 30.22 in    
Wind  
Wind Speed 10 mph (SSE)    
Max Wind Speed 17 mph    
Max Gust Speed 23 mph    
Visibility 10 miles    
Events      
Averages and records for this station are not official NWS values.
T = Trace of Precipitation, MM = Missing Value Source: NWS Daily Summary

Daily Weather History Graph

Daily Weather History Graph

Search for Another Location

Airport or City:

Trip Planner

Search our weather history database for the weather conditions in past years. The results will help you decide how hot, cold, wet, or windy it might be!

Date:

Astronomy

Jan. 04, 2014 Rise Set
Actual Time 7:53 AM EST 5:45 PM EST
Civil Twilight 7:25 AM EST 6:13 PM EST
Nautical Twilight 6:53 AM EST 6:45 PM EST
Astronomical Twilight 6:22 AM EST 7:16 PM EST
Moon 10:07 AM EST (1/4) 9:54 PM EST (1/4)
Length of Visible Light 10h 48m
Length of Day
9h 52m
Waxing Crescent, 15% of the Moon is Illuminated
Jan 4
Waxing Crescent
Jan 7
First Quarter
Jan 15
Full
Jan 24
Last Quarter
Jan 30
New

Hourly Weather History & Observations

Time (EST) Temp. Windchill Dew Point Humidity Pressure Visibility Wind Dir Wind Speed Gust Speed Precip Events Conditions
12:35 AM 24.8 °F - 8.6 °F 50% 30.28 in 10.0 mi Calm Calm - N/A   Clear
12:55 AM 24.8 °F 15.3 °F 10.4 °F 54% 30.29 in 10.0 mi SSE 9.2 mph - N/A   Clear
1:15 AM 26.6 °F 16.2 °F 8.6 °F 47% 30.28 in 10.0 mi SSE 11.5 mph - N/A   Clear
1:35 AM 26.6 °F 16.2 °F 8.6 °F 47% 30.28 in 10.0 mi SSE 11.5 mph - N/A   Clear
1:55 AM 26.6 °F 16.2 °F 8.6 °F 47% 30.28 in 10.0 mi SSE 11.5 mph - N/A   Clear
2:15 AM 26.6 °F 15.7 °F 8.6 °F 47% 30.28 in 10.0 mi SE 12.7 mph - N/A   Clear
2:35 AM 26.6 °F 16.8 °F 10.4 °F 51% 30.29 in 10.0 mi SE 10.4 mph - N/A   Clear
2:55 AM 26.6 °F 16.8 °F 10.4 °F 51% 30.29 in 10.0 mi SE 10.4 mph - N/A   Clear
3:15 AM 26.6 °F 16.2 °F 10.4 °F 51% 30.29 in 10.0 mi SE 11.5 mph - N/A   Clear
3:35 AM 26.6 °F 14.3 °F 10.4 °F 51% 30.29 in 10.0 mi SSE 16.1 mph - N/A   Clear
3:55 AM 26.6 °F 16.2 °F 10.4 °F 51% 30.30 in 10.0 mi SE 11.5 mph - N/A   Clear
4:15 AM 26.6 °F 16.8 °F 10.4 °F 51% 30.29 in 10.0 mi SE 10.4 mph - N/A   Clear
4:35 AM 26.6 °F 15.7 °F 10.4 °F 51% 30.30 in 10.0 mi SE 12.7 mph - N/A   Clear
4:55 AM 26.6 °F 15.7 °F 10.4 °F 51% 30.29 in 10.0 mi SSE 12.7 mph - N/A   Clear
5:15 AM 26.6 °F 16.8 °F 10.4 °F 51% 30.29 in 10.0 mi SSE 10.4 mph - N/A   Clear
5:35 AM 26.6 °F 16.8 °F 10.4 °F 51% 30.29 in 10.0 mi SSE 10.4 mph - N/A   Clear
5:55 AM 26.6 °F 16.2 °F 10.4 °F 51% 30.29 in 10.0 mi SSE 11.5 mph - N/A   Clear
6:15 AM 26.6 °F 17.5 °F 10.4 °F 51% 30.29 in 10.0 mi SSE 9.2 mph - N/A   Clear
6:35 AM 26.6 °F 16.2 °F 10.4 °F 51% 30.29 in 10.0 mi SE 11.5 mph - N/A   Clear
6:55 AM 26.6 °F 16.2 °F 10.4 °F 51% 30.28 in 10.0 mi SSE 11.5 mph - N/A   Clear
7:15 AM 26.6 °F 16.2 °F 10.4 °F 51% 30.29 in 10.0 mi SSE 11.5 mph - N/A   Clear
7:35 AM 26.6 °F 16.2 °F 10.4 °F 51% 30.29 in 10.0 mi SE 11.5 mph - N/A   Clear
7:55 AM 26.6 °F 18.2 °F 10.4 °F 51% 30.29 in 10.0 mi SSE 8.1 mph - N/A   Clear
8:15 AM 26.6 °F 18.2 °F 10.4 °F 51% 30.30 in 10.0 mi SSE 8.1 mph - N/A   Clear
8:35 AM 28.4 °F 19.7 °F 10.4 °F 47% 30.30 in 10.0 mi SSE 9.2 mph - N/A   Clear
8:55 AM 28.4 °F 19.7 °F 10.4 °F 47% 30.31 in 10.0 mi SE 9.2 mph - N/A   Clear
9:15 AM 30.2 °F 21.9 °F 10.4 °F 44% 30.30 in 10.0 mi SSE 9.2 mph - N/A   Clear
9:35 AM 30.2 °F 21.9 °F 10.4 °F 44% 30.31 in 10.0 mi SSE 9.2 mph - N/A   Clear
9:55 AM 32.0 °F 22.1 °F 10.4 °F 41% 30.31 in 10.0 mi SSE 13.8 mph - N/A   Clear
10:15 AM 33.8 °F 25.3 °F 10.4 °F 38% 30.31 in 10.0 mi SE 11.5 mph - N/A   Clear
10:35 AM 33.8 °F 25.3 °F 10.4 °F 38% 30.31 in 10.0 mi SSE 11.5 mph - N/A   Clear
10:55 AM 33.8 °F 26.4 °F 12.2 °F 41% 30.31 in 10.0 mi SSE 9.2 mph - N/A   Clear
11:15 AM 35.6 °F 27.5 °F 12.2 °F 38% 30.29 in 10.0 mi SSE 11.5 mph - N/A   Clear
11:35 AM 37.4 °F 29.8 °F 12.2 °F 36% 30.28 in 10.0 mi SSE 11.5 mph - N/A   Clear
11:55 AM 37.4 °F 29.8 °F 12.2 °F 36% 30.27 in 10.0 mi SSE 11.5 mph 23.0 mph N/A   Clear
12:15 PM 37.4 °F 29.3 °F 14.0 °F 38% 30.26 in 10.0 mi SSE 12.7 mph - N/A   Clear
12:35 PM 39.2 °F 31.2 °F 15.8 °F 39% 30.25 in 10.0 mi SSE 13.8 mph - N/A   Clear
12:55 PM 41.0 °F 33.5 °F 15.8 °F 36% 30.24 in 10.0 mi South 13.8 mph - N/A   Clear
1:15 PM 41.0 °F 34.7 °F 15.8 °F 36% 30.23 in 10.0 mi SSE 10.4 mph - N/A   Clear
1:35 PM 42.8 °F 38.0 °F 15.8 °F 34% 30.21 in 10.0 mi South 8.1 mph - N/A   Clear
1:55 PM 44.6 °F 39.7 °F 17.6 °F 34% 30.20 in 10.0 mi SSE 9.2 mph - N/A   Clear
2:15 PM 44.6 °F 38.4 °F 17.6 °F 34% 30.20 in 10.0 mi SSE 12.7 mph - N/A   Clear
2:35 PM 44.6 °F 38.4 °F 17.6 °F 34% 30.19 in 10.0 mi South 12.7 mph - N/A   Clear
2:55 PM 44.6 °F 38.8 °F 19.4 °F 37% 30.19 in 10.0 mi SSE 11.5 mph - N/A   Clear
3:15 PM 44.6 °F 38.4 °F 19.4 °F 37% 30.18 in 10.0 mi South 12.7 mph - N/A   Clear
3:35 PM 44.6 °F 38.1 °F 21.2 °F 39% 30.17 in 10.0 mi SSE 13.8 mph - N/A   Clear
3:55 PM 42.8 °F 34.8 °F 21.2 °F 42% 30.16 in 10.0 mi South 17.3 mph - N/A   Clear
4:15 PM 42.8 °F 36.2 °F 21.2 °F 42% 30.15 in 10.0 mi SE 12.7 mph - N/A   Clear
4:35 PM 42.8 °F 37.0 °F 21.2 °F 42% 30.15 in 10.0 mi SSE 10.4 mph - N/A   Clear
4:55 PM 42.8 °F 39.3 °F 21.2 °F 42% 30.15 in 10.0 mi SSE 5.8 mph - N/A   Clear
5:15 PM 41.0 °F 35.2 °F 23.0 °F 49% 30.15 in 10.0 mi South 9.2 mph - N/A   Clear
5:35 PM 39.2 °F 33.6 °F 24.8 °F 56% 30.14 in 10.0 mi SSE 8.1 mph - N/A   Clear
5:55 PM 39.2 °F 33.6 °F 24.8 °F 56% 30.14 in 10.0 mi SSE 8.1 mph - N/A   Clear
6:15 PM 39.2 °F 33.0 °F 26.6 °F 61% 30.13 in 10.0 mi SSE 9.2 mph - N/A   Clear
6:35 PM 39.2 °F 33.6 °F 26.6 °F 61% 30.12 in 10.0 mi SSE 8.1 mph - N/A   Clear
6:55 PM 39.2 °F 34.2 °F 26.6 °F 61% 30.13 in 10.0 mi SSE 6.9 mph - N/A   Clear
7:15 PM 39.2 °F 31.6 °F 26.6 °F 61% 30.12 in 10.0 mi SE 12.7 mph - N/A   Clear
7:35 PM 37.4 °F 29.8 °F 26.6 °F 65% 30.13 in 10.0 mi SE 11.5 mph - N/A   Clear
7:55 PM 37.4 °F 29.8 °F 26.6 °F 65% 30.13 in 10.0 mi SSE 11.5 mph - N/A   Clear
8:15 PM 35.6 °F 30.7 °F 26.6 °F 70% 30.13 in 10.0 mi SE 5.8 mph - N/A   Clear
8:35 PM 35.6 °F 29.2 °F 26.6 °F 70% 30.13 in 10.0 mi SSE 8.1 mph - N/A   Clear
8:55 PM 35.6 °F 28.0 °F 26.6 °F 70% 30.13 in 10.0 mi SE 10.4 mph - N/A   Clear
9:15 PM 35.6 °F 28.0 °F 26.6 °F 70% 30.13 in 10.0 mi ESE 10.4 mph - N/A   Scattered Clouds
9:35 PM 37.4 °F 29.8 °F 28.4 °F 70% 30.12 in 10.0 mi SSE 11.5 mph - N/A   Overcast
9:55 PM 37.4 °F 31.4 °F 28.4 °F 70% 30.12 in 10.0 mi SSE 8.1 mph - N/A   Overcast
10:15 PM 37.4 °F 29.3 °F 30.2 °F 75% 30.11 in 10.0 mi SE 12.7 mph - N/A   Overcast
10:35 PM 37.4 °F 29.8 °F 30.2 °F 75% 30.11 in 10.0 mi SE 11.5 mph - N/A   Overcast
10:55 PM 37.4 °F 32.1 °F 30.2 °F 75% 30.11 in 10.0 mi SE 6.9 mph - N/A   Overcast
11:15 PM 37.4 °F - 32.0 °F 81% 30.12 in 10.0 mi Calm Calm - N/A   Overcast
11:35 PM 37.4 °F 32.8 °F 32.0 °F 81% 30.12 in 10.0 mi ESE 5.8 mph - N/A   Overcast
11:55 PM 37.4 °F 34.9 °F 32.0 °F 81% 30.13 in 10.0 mi South 3.5 mph - N/A   Overcast